EW7711 Weather Reports


time (UTC)temp
F
wind
direction
speed
knots
gust
knots
rain 1hr
in
rain 24hr
in
rain mn
in
humidity
%
barometer
mb
20260906212330 85 120 4.3 7.0 0.00 0.07 0.07 58 1015.7
20260906211328 85 109 7.0 11.3 0.00 0.07 0.07 57 1015.9
20260906210329 85 108 6.1 13.9 0.00 0.07 0.07 57 1016.1
20260906205329 84 115 7.0 12.2 0.00 0.07 0.07 56 1016.2
20260906202430 88 111 6.1 12.2 0.00 0.07 0.07 46 1016.4
20260906201429 86 121 3.5 5.2 0.00 0.07 0.07 47 1016.4
20260906200428 86 115 1.7 7.0 0.00 0.07 0.07 45 1016.1
20260906195429 87 94 6.1 8.7 0.00 0.07 0.07 43 1016.1
20260906194430 88 124 5.2 10.4 0.00 0.07 0.07 42 1016.2
20260906193428 87 95 3.5 5.2 0.00 0.07 0.07 41 1016.2
20260906192430 87 114 6.1 8.7 0.00 0.07 0.07 41 1016.1
20260906191447 88 124 4.3 5.2 0.00 0.07 0.07 41 1016.1
20260906190528 88 76 6.1 10.4 0.00 0.07 0.07 41 1015.8
20260906185528 86 101 0.0 0.9 0.00 0.07 0.07 40 1016.1
20260906184527 85 112 7.8 12.2 0.00 0.07 0.07 40 1016.1
20260906183530 85 112 4.3 4.3 0.00 0.07 0.07 43 1016.2
20260906181530 83 112 1.7 3.5 0.00 0.07 0.07 45 1016.6
20260906180530 81 89 1.7 3.5 0.00 0.07 0.07 50 1016.7
20260906175530 80 112 0.9 0.9 0.00 0.07 0.07 54 1016.7
20260906174619 78 112 0.0 0.0 0.00 0.07 0.07 59 1016.9
20260906173719 77 69 0.9 3.5 0.00 0.07 0.07 60 1016.8
20260906172720 76 112 0.0 0.0 0.00 0.07 0.07 62 1017.0
20260906170818 74 112 0.0 0.0 0.00 0.07 0.07 67 1017.2
20260906165834 74 112 0.0 0.0 0.00 0.07 0.07 68 1017.2
20260906164818 72 82 0.9 2.6 0.00 0.07 0.07 73 1016.8
20260906163820 69 97 5.2 7.8 0.00 0.07 0.07 78 1017.1
20260906162818 67 95 7.8 13.0 0.01 0.07 0.07 81 1016.7
20260906161818 68 96 7.8 14.8 0.04 0.07 0.07 76 1016.7
20260906160819 70 78 6.1 9.6 0.04 0.07 0.07 71 1016.3
20260906155818 68 96 9.6 12.2 0.04 0.07 0.07 77 1016.7
20260906153820 67 90 7.0 9.6 0.05 0.07 0.07 90 1017.4
20260906152818 67 90 5.2 6.1 0.05 0.06 0.06 92 1018.4
20260906151818 67 247 5.2 7.8 0.02 0.03 0.03 89 1020.2
20260906150818 67 90 2.6 2.6 0.02 0.03 0.03 88 1018.3
20260906145818 68 79 5.2 8.7 0.02 0.03 0.03 86 1018.0
20260906144818 68 97 7.0 9.6 0.02 0.03 0.03 88 1019.0
20260906143918 66 97 0.0 0.9 0.01 0.02 0.02 92 1020.0
20260906142917 66 292 1.7 1.7 0.01 0.01 0.01 92 1019.5
20260906141918 66 247 2.6 2.6 0.01 0.01 0.01 92 1019.2
20260906135019 65 320 1.7 5.2 0.01 0.01 0.01 96 1018.2
20260906134019 66 18 0.9 3.5 0.01 0.01 0.01 95 1018.0
20260906133017 66 22 2.6 6.1 0.01 0.01 0.00 94 1018.7
20260906132116 66 247 2.6 2.6 0.00 0.00 0.00 94 1020.0
20260906131117 65 180 1.7 1.7 0.00 0.00 0.00 96 1019.9
20260906130216 65 247 0.0 0.0 0.00 0.00 0.00 96 1019.0
20260906125235 0 0 0.0 0.0 0.00 0.00 0.00 100
20260906124315 64 247 1.7 1.7 0.00 0.00 0.00 96 1019.4
20260906123315 63 247 4.3 4.3 0.00 0.00 0.00 95 1019.4
20260906122317 0 0 0.0 0.0 0.00 0.00 0.00 100
20260906121333 0 0 0.0 0.0 0.00 0.00 0.00 100
20260906120417 0 0 0.0 0.0 0.00 0.00 0.00 100
20260906115416 0 0 0.0 0.0 0.00 0.00 0.00 100
20260906114432 0 0 0.0 0.0 0.00 0.00 0.00 100
20260906113531 0 0 0.0 0.0 0.00 0.00 0.00 100
20260906112630 0 0 0.0 0.0 0.00 0.00 0.00 100
20260906111717 0 0 0.0 0.0 0.00 0.00 0.00 100
20260906110816 0 0 0.0 0.0 0.00 0.00 0.00 100
20260906105818 0 0 0.0 0.0 0.00 0.00 0.00 100
20260906104015 0 0 0.0 0.0 0.00 0.00 0.00 100
20260906103033 0 0 0.0 0.0 0.00 0.00 0.00 100
20260906102118 65 112 0.0 0.0 0.00 0.00 0.00 94 1018.0
20260906101118 65 90 0.0 0.0 0.00 0.00 0.00 94 1017.9
20260906100217 65 90 1.7 1.7 0.00 0.00 0.00 94 1018.0
20260906095217 65 112 0.0 0.0 0.00 0.00 0.00 94 1017.9
20260906094218 65 90 0.0 0.0 0.00 0.00 0.00 94 1018.0
20260906093216 65 90 0.0 0.0 0.00 0.00 0.00 94 1017.9
20260906092217 65 112 0.0 0.0 0.00 0.00 0.00 95 1017.9
20260906091217 65 90 0.9 5.2 0.00 0.00 0.00 95 1017.9
20260906090220 65 95 2.6 4.3 0.00 0.00 0.00 95 1017.9
20260906085317 65 95 3.5 6.1 0.00 0.00 0.00 95 1017.8
20260906084319 66 93 2.6 7.0 0.00 0.00 0.00 94 1017.9
20260906083416 66 95 2.6 7.0 0.00 0.00 0.00 93 1018.1
20260906082419 66 92 1.7 4.3 0.00 0.00 0.00 94 1017.9
20260906081418 66 103 2.6 3.5 0.00 0.00 0.00 93 1017.9
20260906080418 66 95 5.2 7.8 0.00 0.00 0.00 92 1017.9
20260906075516 66 94 3.5 7.0 0.00 0.00 0.00 91 1017.9
20260906073517 67 100 2.6 5.2 0.00 0.00 0.00 92 1018.0
20260906072519 67 105 2.6 5.2 0.00 0.00 0.00 91 1017.9
20260906071616 67 90 2.6 5.2 0.00 0.00 0.00 90 1017.8
20260906070618 68 90 3.5 6.1 0.00 0.00 0.00 90 1017.6
20260906065616 68 92 2.6 5.2 0.00 0.00 0.00 90 1017.8
20260906064620 68 90 1.7 5.2 0.00 0.00 0.00 90 1017.9
20260906063716 68 90 0.0 2.6 0.00 0.00 0.00 89 1017.9
20260906061817 69 84 0.0 0.9 0.00 0.00 0.00 88 1017.8
20260906060821 69 95 1.7 2.6 0.00 0.00 0.00 89 1017.9
20260906055819 69 90 0.0 0.0 0.00 0.00 0.00 89 1018.0
20260906054820 69 90 0.9 3.5 0.00 0.00 0.00 89 1017.9
20260906053818 69 90 0.0 1.7 0.00 0.00 0.00 89 1017.9
20260906052822 70 93 0.9 6.1 0.00 0.00 0.00 89 1017.8
20260906051919 70 90 0.9 1.7 0.00 0.00 0.00 88 1017.9
20260906050920 70 71 0.0 1.7 0.00 0.00 0.00 87 1017.9
20260906045919 71 90 2.6 4.3 0.00 0.00 0.00 87 1017.8
20260906044919 71 81 2.6 4.3 0.00 0.00 0.00 87 1017.8
20260906043920 71 72 0.9 1.7 0.00 0.00 0.00 86 1017.8
20260906043018 71 67 0.0 0.0 0.00 0.00 0.00 86 1017.5
20260906042117 72 88 0.9 2.6 0.00 0.00 0.00 85 1017.6
20260906041118 72 78 0.0 2.6 0.00 0.00 0.00 84 1017.6
20260906040119 72 81 0.0 0.9 0.00 0.00 0.00 84 1017.7
20260906035120 73 67 0.0 0.0 0.00 0.00 0.00 82 1017.4
20260906034120 73 112 0.0 0.0 0.00 0.00 0.00 81 1017.6
20260906033219 74 357 0.0 0.9 0.00 0.00 0.00 80 1017.2
20260906032317 75 67 0.0 0.0 0.00 0.00 0.00 78 1017.1
20260906030320 76 4 0.9 3.5 0.00 0.00 0.00 75 1017.0
20260906025417 77 81 0.0 2.6 0.00 0.00 0.00 74 1016.8
20260906024419 78 99 0.9 3.5 0.00 0.00 0.00 71 1016.8
20260906023418 78 82 0.0 2.6 0.00 0.00 0.00 71 1016.7
20260906022518 78 68 1.7 7.0 0.00 0.00 0.00 70 1016.6
20260906021519 79 86 0.0 1.7 0.00 0.00 0.00 68 1016.6
20260906020534 79 87 0.9 3.5 0.00 0.00 0.00 67 1016.3
20260906013718 82 82 0.0 0.9 0.00 0.00 0.00 61 1016.2
20260906012718 83 85 0.0 0.0 0.00 0.00 0.00 57 1016.2
20260906011818 86 85 0.0 0.0 0.00 0.00 0.00 51 1016.2
20260906010818 89 101 0.0 0.0 0.00 0.00 0.00 42 1016.1
20260906005836 0 0 0.0 0.0 0.00 0.00 0.00 100
20260906003822 0 0 0.0 0.0 0.00 0.00 0.00 100
20260906001839 0 0 0.0 0.0 0.00 0.00 0.00 100
20260906000820 0 0 0.0 0.0 0.00 0.00 0.00 100
20260905235837 0 0 0.0 0.0 0.00 0.00 0.00 100
20260905234820 95 247 0.9 0.9 0.00 0.00 0.00 33 1015.4
20260905233821 0 0 0.0 0.0 0.00 0.00 0.00 100
20260905232919 0 0 0.0 0.0 0.00 0.00 0.00 100
20260905231936 0 0 0.0 0.0 0.00 0.00 0.00 100
20260905230936 0 0 0.0 0.0 0.00 0.00 0.00 100
20260905225938 0 0 0.0 0.0 0.00 0.00 0.00 100
20260905224939 0 0 0.0 0.0 0.00 0.00 0.00 100
20260905223921 93 101 0.0 0.0 0.00 0.00 0.00 36 1015.2
20260905222018 93 235 0.0 0.0 0.00 0.00 0.00 40 1015.2
20260905221038 93 112 0.0 0.0 0.00 0.00 0.00 39 1015.2
20260905220120 92 90 0.0 0.0 0.00 0.00 0.00 39 1015.4
20260905215136 92 247 0.0 0.0 0.00 0.00 0.00 39 1015.5
20260905213219 93 247 1.7 1.7 0.00 0.00 0.00 39 1015.4